Overview Statistics Trail Chart Weather Telemetry Raw packets
 

This is the latest recevied weather packets stored in our database for station/object SV9TNF-57. If no packets are shown the sender has not sent any weather packets the latest 10 day(s).

<< 66 67 68 69 70 71 72 >>
Time Temp. Humidity Pressure Rain* Wind** Luminosity Snow
1788197874 27.78° C 44% 994.6 hPa 0 mm 0 m/s - -
1788197573 27.78° C 43% 994.6 hPa 0 mm 0 m/s - -
1788197273 27.78° C 44% 994.6 hPa 0 mm 0 m/s - -
1788196973 27.78° C 43% 994.6 hPa 0 mm 0.89 m/s, 308° - -
1788196673 27.78° C 44% 994.9 hPa 0 mm 0 m/s - -
1788196373 27.78° C 44% 994.6 hPa 0 mm 0 m/s - -
1788196073 27.78° C 44% 994.3 hPa 0 mm 0.45 m/s, 318° - -
1788195773 27.78° C 43% 994.5 hPa 0 mm 0 m/s - -
1788195473 28.33° C 43% 994.3 hPa 0 mm 0.45 m/s, 306° - -
1788195172 28.33° C 42% 994.6 hPa 0 mm 0.89 m/s, 306° - -
1788194873 28.33° C 42% 994.5 hPa 0 mm 2.68 m/s, 291° - -
1788194572 28.33° C 41% 994.3 hPa 0 mm 0.89 m/s, 346° - -
1788194273 28.89° C 40% 994.1 hPa 0 mm 1.79 m/s, 345° - -
1788193972 28.89° C 39% 994.5 hPa 0 mm 0 m/s - -
1788193672 28.89° C 39% 994.4 hPa 0 mm 0.45 m/s, 318° - -
1788193372 28.89° C 39% 994.3 hPa 0 mm 1.34 m/s, 320° - -
1788193072 28.89° C 38% 994.5 hPa 0 mm 0.45 m/s, 284° - -
1788192779 29.44° C 39% 994.5 hPa 0 mm 0.45 m/s, 304° - -
1788192472 29.44° C 38% 994.5 hPa 0 mm 0.45 m/s, 311° - -
1788192172 29.44° C 38% 994.6 hPa 0 mm 3.13 m/s, 274° - -
1788191871 29.44° C 37% 994.5 hPa 0 mm 1.34 m/s, 283° - -
1788191571 29.44° C 37% 994.7 hPa 0 mm 6.71 m/s, 317° - -
1788191271 30° C 37% 994.6 hPa 0 mm 3.58 m/s, 5° - -
1788190971 30° C 36% 994.6 hPa 0 mm 3.13 m/s, 326° - -
1788190671 30° C 36% 994.4 hPa 0 mm 4.92 m/s, 336° - -

* Rain latest hour (hover to see other rain measurements)
** Current wind speed in m/s (hover to see current wind gust speed)